This demonstration page uses our WeatherBlox Daily Observations layout. Learn more.

Left ArrowRight Arrow

39.01783, -85.05884

Hourly Observations for October 12, 2016

Temp ( °F °C ) Dew Point ( °F °C ) Humidity (%) Winds ( mph kmh ) Pressure ( in mb ) Visibility ( mi km ) Precip ( " mm )
12:52 am 00:52 Mostly Clear 57 13.9 48 8.9 72 72 S 6 9 30.18 1022 10 16 0.00 0.00
1:52 am 01:52 Mostly Clear 54 12.2 51 10.6 90 90 S 5 7 30.17 1022 10 16 0.00 0.00
2:52 am 02:52 Mostly Cloudy 54 12 48 9 82 82 S 6 9 30.18 1022 10 16 0.00 0.00
3:52 am 03:52 Partly Cloudy 54 12.2 48 8.9 80 80 S 5 7 30.15 1021 10 16 0.00 0.00
4:52 am 04:52 Clear 53 11.7 47 8.3 80 80 S 6 9 30.16 1021 10 16 0.00 0.00
5:52 am 05:52 Clear 53 11.7 47 8.3 80 80 S 6 9 30.17 1022 10 16 0.00 0.00
6:52 am 06:52 Mostly Clear 54 12.2 46 7.8 75 75 SSW 7 11 30.18 1022 10 16 0.00 0.00
7:52 am 07:52 Partly Cloudy 54 12.2 46 7.8 75 75 S 10 17 30.18 1022 10 16 0.00 0.00
8:52 am 08:52 Partly Cloudy 57 13.9 47 8.3 69 69 SSW 10 17 30.20 1023 10 16 0.00 0.00
9:52 am 09:52 Mostly Cloudy 63 17.2 47 8.3 56 56 SSW 14 22 30.18 1022 10 16 0.00 0.00
10:52 am 10:52 Mostly Sunny 65 18.3 47 8.3 52 52 SSW 12 19 30.18 1022 10 16 0.00 0.00
11:52 am 11:52 Mostly Sunny 70 21.1 48 8.9 46 46 SSW 12 19 30.16 1022 10 16 0.00 0.00
12:52 pm 12:52 Mostly Sunny 73 22.8 49 9.4 43 43 SSW 10 17 30.13 1020 10 16 0.00 0.00
1:52 pm 13:52 Mostly Sunny 76 24.4 50 10 40 40 SSW 13 20 30.11 1020 10 16 0.00 0.00
2:52 pm 14:52 Mostly Sunny 77 25 49 9.4 37 37 SSW 16 26 30.09 1019 10 16 0.00 0.00
3:52 pm 15:52 Partly Cloudy 78 25.6 51 10.6 39 39 SSW 12 19 30.06 1018 10 16 0.00 0.00
4:52 pm 16:52 Mostly Cloudy 77 25 51 10.6 40 40 S 14 22 30.05 1018 10 16 0.00 0.00
5:52 pm 17:52 Mostly Cloudy 75 23.9 50 10 41 41 SSW 9 15 30.04 1017 10 16 0.00 0.00
6:52 pm 18:52 Cloudy 74 23.3 51 10.6 45 45 SSW 7 11 30.04 1017 10 16 0.00 0.00
7:52 pm 19:52 Cloudy with Light Rain 71 21.7 53 11.7 53 53 SSW 7 11 30.05 1018 9 14 0.00 0.03
8:52 pm 20:52 Cloudy 68 20 54 12.2 61 61 WSW 6 9 30.06 1018 10 16 0.00 0.03
9:52 pm 21:52 Cloudy 66 18.9 55 12.8 68 68 WSW 3 6 30.06 1018 10 16 0.00 0.00
10:52 pm 22:52 Cloudy 65 18.3 55 12.8 70 70 SSW 5 7 30.06 1018 10 16 0.00 0.00
11:52 pm 23:52 Cloudy 64 17.8 55 12.8 73 73 SSW 5 7 30.05 1018 10 16 0.00 0.00

Powered by AerisWeather